Tracking 20369 objects as of 19-Feb-2020
HD Live streaming from Space Station
objects crossing your sky now

WORLDVIEW 2 DEB


WORLDVIEW 2 DEB is no longer on orbit


NORAD ID: 43389
Int'l Code: 2009-055Q
Perigee: N/A
Apogee: N/A
Inclination: N/A
Period: N/A
Semi major axis: N/A
RCS: N/A
Launch date: October 8, 2009
Source: United States (US)
Launch site: AIR FORCE WESTERN TEST RANGE (AFWTR)
Decay date: 2018-07-31

Note: This is SATELLITE DEBRIS
aabbcc
Your satellite tracking list
Your tracking list is empty




NASA's NSSDC Master Catalog

Two Line Element Set (TLE):
1 43389U 09055Q   18189.32382292  .00302288  00000-0  11347-1 0  9994
2 43389  98.6114 316.5757 0034922 190.8574 169.1911 15.25342818 77210
Source of the keplerian elements: AFSPC